Location: Buisson
(44.2787°N, 4.9969°E)
Time: 07:33:41
(UTC+00:00)

Cosmos 2369 Rocket - Pass Details

Date: 18 April 2021
Orbit: 828 x 853 km, 71.0° (Epoch: 06 May)

Event Time Altitude Azimuth Distance (km) Brightness Sun altitude
Exits shadow 04:17:59 - 214° (SW) 3,167 4.7 -6.5°
Reaches altitude 10° 04:19:56 10° 217° (SW) 2,427 4.1 -6.1°
Maximum altitude 04:25:26 62° 298° (WNW) 931 2.3 -5.2°
Drops below altitude 10° 04:31:01 10° 20° (NNE) 2,453 5.2 -4.3°
Sets 04:33:30 0° 23° (NNE) 3,394 6.1 -3.9°
